Flag for India Weather past 2 weeks in Jaipur, Rajasthan, India

Now
86 °F

Passing clouds.


Feels Like: 84 °F
Forecast: 69 / 92 °F
Wind: No wind

Location: Jaipur / Sanganer

Current Time: Oct 23, 2014 at 7:46:39 PM

Latest Report: Oct 23, 2014 at 7:00 PM


Visibility: 1 mi

Pressure: 29.92 "Hg

Humidity: 29%

Dew point: 50 °F

Location of JaipurLocation

Historic Weather in Jaipur — Graph

°F

Jaipur temperature yesterday

Maximum temperature yesterday: 93 °F (at 2:00 PM)
Minimum temperature yesterday: 68 °F (at 7:00 AM)
Average temperature yesterday: 82 °F

Past Weeks' High & Low Weather Summary

 TemperatureHumidityPressure
High95 °F (Oct 10, 3:00 PM)94% (Oct 16, 5:00 AM)30.12 "Hg (Oct 16, 5:00 AM)
Low64 °F (Oct 18, 6:00 AM)13% (Oct 11, 4:00 PM)29.65 "Hg (Oct 11, 3:00 PM)
Average80 °F47%29.94 "Hg
* Reported Oct 8 8:00 PM — Oct 23 6:00 PM, Jaipur, Weather by CustomWeather, © 2014

Note: Actual official high and low records may vary slightly from our data, if they occured in-between our weather recording intervals... More about our weather records

Advertising

Jaipur weather history for previous 24 hours

 ConditionsComfort  
Time TempWeatherWind HumidityBarometerVisibility
6:00 PM
Oct 23
90 °FPartly sunny.2 mph24%29.92 "Hg1 mi
5:00 PM91 °FScattered clouds.6 mph21%29.89 "Hg1 mi
4:00 PM93 °FScattered clouds.9 mph19%29.89 "Hg1 mi
3:00 PM95 °FScattered clouds.7 mph19%29.92 "Hg1 mi
2:00 PM93 °FHaze.7 mph19%29.95 "Hg1 mi
1:00 PM93 °FHaze.8 mph20%29.98 "Hg1 mi
12:00 PM91 °FHaze.3 mph30%30.01 "Hg1 mi
11:00 AM90 °FClear.3 mph31%30.04 "Hg1 mi
10:00 AM86 °FClear.5 mph38%30.04 "Hg1 mi
9:00 AM81 °FClear.7 mph45%30.04 "Hg1 mi
8:00 AM77 °FSmoke.2 mph54%30.04 "Hg1 mi
7:00 AM70 °FPassing clouds.No wind64%30.01 "Hg1 mi
6:00 AM72 °FPassing clouds.1 mph61%29.98 "Hg1 mi
5:00 AM72 °FPassing clouds.2 mph61%29.98 "Hg1 mi
4:00 AM73 °FPassing clouds.3 mph53%29.98 "Hg1 mi
3:00 AM77 °FPassing clouds.1 mph47%29.98 "Hg1 mi
2:30 AM77 °FPassing clouds.1 mph44%29.98 "Hg1 mi
2:00 AM79 °FPassing clouds.5 mph42%29.98 "Hg1 mi
1:00 AM81 °FPassing clouds.3 mph39%29.98 "Hg1 mi
11:30 PM
Oct 22
81 °FPassing clouds.6 mph34%30.01 "Hg1 mi
11:00 PM82 °FPassing clouds.6 mph30%30.01 "Hg1 mi
10:00 PM82 °FPassing clouds.No wind30%30.01 "Hg1 mi
9:00 PM82 °FPassing clouds.3 mph35%29.98 "Hg1 mi
8:30 PM84 °FPassing clouds.2 mph31%29.98 "Hg1 mi
8:00 PM86 °FPassing clouds.3 mph29%29.98 "Hg1 mi
7:00 PM88 °FPassing clouds.3 mph25%29.98 "Hg1 mi
Weather by CustomWeather, © 2014

See weather overviewHow to use our weather pages